When you browse on this site, cookies collect data to enhance your experience and personalize the content and advertising you see.
Visit our Privacy Policy to learn more. By continuing to use the site, you agree to this use of cookies and data.

Stündliche Wetter Elbasan

Heute, 10 Juli, Freitag

Zeit Temperatur Niederschläge Wind Luftdruck Luftfeuchtigkeit
00:00 +21°C° 0 mm 2 m/S 736 mmHg 66%
01:00 +21°C° 0 mm 2 m/S 736 mmHg 65%
02:00 +21°C° 0 mm 2 m/S 736 mmHg 65%
03:00 +20°C° 0 mm 2 m/S 735 mmHg 65%
04:00 +20°C° 0 mm 2 m/S 735 mmHg 65%
05:00 +23°C° 0 mm 2 m/S 735 mmHg 62%
06:00 +25°C° 0 mm 2 m/S 736 mmHg 60%
07:00 +27°C° 0 mm 2 m/S 736 mmHg 55%
08:00 +28°C° 0 mm 2 m/S 736 mmHg 50%
09:00 +30°C° 0 mm 2 m/S 736 mmHg 45%
10:00 +32°C° 0 mm 1 m/S 736 mmHg 40%
11:00 +32°C° 0 mm 2 m/S 736 mmHg 38%
12:00 +34°C° 0 mm 2 m/S 736 mmHg 37%
13:00 +34°C° 0 mm 2 m/S 735 mmHg 36%
14:00 +34°C° 0 mm 2 m/S 735 mmHg 37%
15:00 +33°C° 0 mm 3 m/S 735 mmHg 39%
16:00 +33°C° 0 mm 3 m/S 735 mmHg 41%
17:00 +30°C° 0 mm 2 m/S 735 mmHg 48%
18:00 +28°C° 0 mm 1 m/S 735 mmHg 54%
19:00 +26°C° 0 mm 1 m/S 735 mmHg 61%
20:00 +25°C° 0 mm 1 m/S 735 mmHg 62%
21:00 +24°C° 0 mm 1 m/S 735 mmHg 64%
22:00 +24°C° 0 mm 1 m/S 735 mmHg 65%
23:00 +23°C° 0 mm 1 m/S 735 mmHg 66%

Morgen, 11 Juli, Samstag

Zeit Temperatur Niederschläge Wind Luftdruck Luftfeuchtigkeit
00:00 +23°C° 0 mm 1 m/S 735 mmHg 67%
01:00 +23°C° 0 mm 1 m/S 735 mmHg 68%
02:00 +23°C° 0 mm 1 m/S 735 mmHg 69%
03:00 +22°C° 0 mm 1 m/S 735 mmHg 69%
04:00 +22°C° 0 mm 1 m/S 735 mmHg 70%
05:00 +24°C° 0 mm 1 m/S 735 mmHg 65%
06:00 +26°C° 0 mm 1 m/S 735 mmHg 61%
07:00 +27°C° 0 mm 1 m/S 735 mmHg 56%
08:00 +29°C° 0 mm 1 m/S 735 mmHg 51%
09:00 +31°C° 0 mm 1 m/S 735 mmHg 46%
10:00 +32°C° 0 mm 1 m/S 735 mmHg 41%
11:00 +34°C° 0 mm 2 m/S 735 mmHg 39%
12:00 +34°C° 0 mm 2 m/S 734 mmHg 37%
13:00 +35°C° 0 mm 3 m/S 734 mmHg 36%
14:00 +34°C° 0 mm 3 m/S 734 mmHg 38%
15:00 +33°C° 0 mm 3 m/S 734 mmHg 41%
16:00 +33°C° 0 mm 4 m/S 734 mmHg 43%
17:00 +30°C° 0 mm 3 m/S 734 mmHg 49%
18:00 +28°C° 0 mm 2 m/S 733 mmHg 54%
19:00 +26°C° 0 mm 1 m/S 733 mmHg 60%
20:00 +25°C° 0 mm 1 m/S 734 mmHg 61%
21:00 +25°C° 0 mm 1 m/S 734 mmHg 62%
22:00 +24°C° 0 mm 1 m/S 734 mmHg 64%
23:00 +23°C° 0 mm 1 m/S 734 mmHg 65%

übermorgen, 12 Juli, Sonntag

Zeit Temperatur Niederschläge Wind Luftdruck Luftfeuchtigkeit
00:00 +23°C° 0 mm 1 m/S 733 mmHg 66%
01:00 +23°C° 0 mm 1 m/S 733 mmHg 67%
02:00 +22°C° 0 mm 1 m/S 733 mmHg 67%
03:00 +22°C° 0 mm 1 m/S 733 mmHg 68%
04:00 +22°C° 0 mm 1 m/S 733 mmHg 69%
05:00 +22°C° 0 mm 0 m/S 733 mmHg 64%
06:00 +24°C° 0 mm 0 m/S 734 mmHg 59%
07:00 +26°C° 0 mm 0 m/S 734 mmHg 55%
08:00 +29°C° 0 mm 1 m/S 734 mmHg 50%
09:00 +31°C° 0 mm 1 m/S 734 mmHg 46%
10:00 +32°C° 0 mm 1 m/S 734 mmHg 42%
11:00 +34°C° 0.1 mm 2 m/S 734 mmHg 41%
12:00 +34°C° 0.1 mm 3 m/S 734 mmHg 41%
13:00 +35°C° 0.1 mm 3 m/S 734 mmHg 40%
14:00 +34°C° 0.3 mm 3 m/S 734 mmHg 44%
15:00 +33°C° 0.3 mm 3 m/S 734 mmHg 48%
16:00 +31°C° 0.3 mm 3 m/S 734 mmHg 53%
17:00 +30°C° 0.2 mm 2 m/S 734 mmHg 59%
18:00 +28°C° 0.2 mm 2 m/S 734 mmHg 64%
19:00 +26°C° 0.2 mm 1 m/S 734 mmHg 70%
20:00 +25°C° 0.1 mm 1 m/S 734 mmHg 74%
21:00 +24°C° 0.1 mm 1 m/S 735 mmHg 78%
22:00 +23°C° 0.1 mm 1 m/S 735 mmHg 81%
23:00 +23°C° 0 mm 1 m/S 735 mmHg 82%

13 Juli, Montag

Zeit Temperatur Niederschläge Wind Luftdruck Luftfeuchtigkeit
00:00 +23°C° 0 mm 2 m/S 735 mmHg 83%
01:00 +21°C° 0 mm 2 m/S 734 mmHg 83%
02:00 +21°C° 0 mm 2 m/S 734 mmHg 84%
03:00 +20°C° 0 mm 2 m/S 734 mmHg 84%
04:00 +20°C° 0 mm 2 m/S 734 mmHg 84%
05:00 +21°C° 0 mm 2 m/S 734 mmHg 79%
06:00 +23°C° 0 mm 2 m/S 734 mmHg 74%
07:00 +24°C° 0 mm 3 m/S 735 mmHg 70%
08:00 +26°C° 0 mm 3 m/S 735 mmHg 64%
09:00 +27°C° 0 mm 3 m/S 735 mmHg 59%
10:00 +29°C° 0 mm 3 m/S 735 mmHg 53%
11:00 +29°C° 0 mm 3 m/S 735 mmHg 50%
12:00 +30°C° 0 mm 3 m/S 734 mmHg 47%
13:00 +31°C° 0 mm 3 m/S 734 mmHg 44%
14:00 +31°C° 0 mm 3 m/S 734 mmHg 44%
15:00 +31°C° 0 mm 3 m/S 733 mmHg 44%
16:00 +31°C° 0 mm 3 m/S 733 mmHg 44%
17:00 +29°C° 0 mm 3 m/S 733 mmHg 49%
18:00 +27°C° 0 mm 2 m/S 733 mmHg 54%
19:00 +25°C° 0 mm 2 m/S 733 mmHg 59%
20:00 +24°C° 0 mm 2 m/S 733 mmHg 59%
21:00 +21°C° 0 mm 3 m/S 733 mmHg 59%
22:00 +20°C° 0 mm 3 m/S 734 mmHg 60%
23:00 +20°C° 0 mm 3 m/S 734 mmHg 60%

14 Juli, Dienstag

Zeit Temperatur Niederschläge Wind Luftdruck Luftfeuchtigkeit
00:00 +19°C° 0 mm 3 m/S 734 mmHg 60%
01:00 +19°C° 0 mm 3 m/S 734 mmHg 60%
02:00 +18°C° 0 mm 3 m/S 733 mmHg 61%
03:00 +18°C° 0 mm 3 m/S 733 mmHg 61%
04:00 +18°C° 0 mm 3 m/S 733 mmHg 62%
05:00 +19°C° 0 mm 3 m/S 733 mmHg 59%
06:00 +21°C° 0 mm 3 m/S 734 mmHg 56%
07:00 +22°C° 0 mm 3 m/S 734 mmHg 53%
08:00 +25°C° 0 mm 2 m/S 734 mmHg 50%
09:00 +26°C° 0 mm 2 m/S 734 mmHg 47%
10:00 +28°C° 0 mm 2 m/S 734 mmHg 44%
11:00 +29°C° 0 mm 2 m/S 734 mmHg 43%
12:00 +30°C° 0 mm 2 m/S 734 mmHg 42%
13:00 +31°C° 0 mm 2 m/S 734 mmHg 41%
14:00 +30°C° 0.1 mm 2 m/S 734 mmHg 43%
15:00 +30°C° 0.1 mm 2 m/S 734 mmHg 44%
16:00 +29°C° 0.1 mm 3 m/S 733 mmHg 46%
17:00 +27°C° 0 mm 2 m/S 733 mmHg 52%
18:00 +26°C° 0 mm 2 m/S 733 mmHg 59%
19:00 +24°C° 0 mm 1 m/S 733 mmHg 65%
20:00 +23°C° 0 mm 1 m/S 734 mmHg 68%
21:00 +22°C° 0 mm 1 m/S 734 mmHg 71%
22:00 +21°C° 0 mm 1 m/S 734 mmHg 74%
23:00 +21°C° 0 mm 1 m/S 734 mmHg 74%

15 Juli, Mittwoch

Zeit Temperatur Niederschläge Wind Luftdruck Luftfeuchtigkeit
00:00 +21°C° 0 mm 1 m/S 734 mmHg 75%
01:00 +21°C° 0 mm 1 m/S 734 mmHg 75%
02:00 +20°C° 0 mm 1 m/S 734 mmHg 76%
03:00 +20°C° 0 mm 1 m/S 734 mmHg 77%
04:00 +20°C° 0 mm 1 m/S 734 mmHg 78%
05:00 +22°C° 0 mm 1 m/S 735 mmHg 72%
06:00 +23°C° 0 mm 1 m/S 735 mmHg 67%
07:00 +25°C° 0 mm 1 m/S 735 mmHg 61%
08:00 +27°C° 0 mm 1 m/S 735 mmHg 56%
09:00 +28°C° 0 mm 1 m/S 736 mmHg 51%
10:00 +30°C° 0 mm 1 m/S 736 mmHg 45%
11:00 +31°C° 0 mm 2 m/S 736 mmHg 43%
12:00 +31°C° 0 mm 3 m/S 735 mmHg 40%
13:00 +32°C° 0 mm 4 m/S 735 mmHg 38%
14:00 +31°C° 0 mm 3 m/S 735 mmHg 38%
15:00 +30°C° 0 mm 3 m/S 735 mmHg 38%
16:00 +30°C° 0 mm 3 m/S 735 mmHg 38%
17:00 +28°C° 0 mm 2 m/S 735 mmHg 42%
18:00 +26°C° 0 mm 1 m/S 735 mmHg 46%
19:00 +23°C° 0 mm 1 m/S 734 mmHg 50%
20:00 +23°C° 0 mm 1 m/S 735 mmHg 50%
21:00 +22°C° 0 mm 1 m/S 735 mmHg 50%
22:00 +21°C° 0 mm 1 m/S 735 mmHg 50%
23:00 +21°C° 0 mm 1 m/S 735 mmHg 50%
Mehr zeigen